[[{"header":{"parameterUnit":"m.s-1","parameterCategory":1,"la1":30.2991,"la2":30.254,"lo1":-89.0895,"lo2":-89.0444,"dy":0.0017,"dx":0.0017,"nx":28,"ny":28,"refTime":"2023-08-19T03:00:00:Z","depth":0,"parameterNumber":2,"parameterNumberName":"U-component_of_WINDS"},"data":[0,0,0,0,0,0,0,0,0,0,0,0,0,0,0,0,0,0,0,0,0,0,0,0,0,0,0,0,0,0,0,0,0,0,0,0,0,0,0,0,0,0,0,0,0,0,0,0,0,0,0,0,0,0,0,0,0,0,-1.6948,-1.6947,0,-1.6832,-1.683,-1.6829,-1.6744,-1.6743,-1.6743,-1.6742,-1.6622,-1.662,-1.6617,0,0,0,0,0,0,0,0,0,0,0,0,0,-1.7097,-1.7095,-1.6948,-1.6947,-1.6945,-1.6832,-1.683,-1.6829,-1.6744,-1.6743,-1.6742,-1.6742,-1.6623,-1.662,-1.6617,0,0,0,0,0,0,0,0,0,0,0,0,0,-1.7012,-1.7094,-1.6948,-1.6889,-1.6883,-1.6832,-1.683,-1.6828,-1.6744,-1.6743,-1.6742,-1.6741,-1.6624,-1.662,-1.6616,-1.6615,0,0,-1.6605,-1.6603,0,0,0,0,0,0,0,0,-1.7017,-1.7007,-1.69,-1.6893,-1.6886,-1.6801,-1.6839,-1.6757,-1.6745,-1.6797,-1.6742,-1.6741,-1.6682,-1.6674,-1.6654,-1.6609,-1.6604,-1.6604,-1.6602,-1.6601,-1.6599,0,0,0,0,0,0,0,-1.7023,-1.7011,-1.6902,-1.6898,-1.689,-1.6869,-1.6855,-1.6823,-1.6747,-1.6792,-1.6786,-1.6773,-1.6679,-1.6658,-1.6651,-1.6602,-1.6605,-1.6601,-1.6599,-1.6597,-1.655,-1.6551,0,0,0,0,0,0,-1.7038,-1.7017,-1.6906,-1.6899,-1.695,-1.6867,-1.6852,-1.683,-1.6747,-1.6734,-1.6774,-1.677,-1.6665,-1.6655,-1.6646,-1.6638,-1.6601,-1.6597,-1.6595,-1.6549,-1.655,-1.6551,0,0,0,0,0,0,-1.7042,-1.7029,-1.691,-1.6956,-1.6939,-1.6866,-1.6841,-1.6828,-1.6807,-1.6734,-1.672,-1.6767,-1.6664,-1.6652,-1.6623,-1.6633,-1.6595,-1.6592,-1.6547,-1.6549,-1.655,-1.6623,0,0,0,0,0,0,-1.7046,-1.7031,-1.7029,-1.6956,-1.6937,-1.689,-1.6842,-1.6826,-1.6801,-1.6794,-1.6723,-1.6711,-1.6662,-1.6629,-1.662,-1.6627,-1.6589,-1.6546,-1.6548,-1.655,-1.662,-1.6627,-1.6634,0,0,0,0,0,-1.7052,-1.7054,-1.703,-1.7017,-1.6934,-1.689,-1.6879,-1.6823,-1.6802,-1.68,-1.6753,-1.6713,-1.6634,-1.6627,-1.6615,-1.6622,-1.6545,-1.6548,-1.655,-1.6617,-1.6626,-1.6633,0,0,0,0,0,0,-1.713,-1.7044,-1.7015,-1.6994,-1.695,-1.6876,-1.6871,-1.6835,-1.6796,-1.6791,-1.6723,-1.6708,-1.6686,-1.6651,-1.6645,-1.6616,-1.6585,-1.6585,-1.664,-1.6648,-1.6654,-1.6663,-1.6586,0,0,0,0,0,-1.7145,-1.7117,-1.7043,-1.7032,-1.7011,-1.6946,-1.6924,-1.6885,-1.6837,-1.6818,-1.6768,-1.6723,-1.6688,-1.6666,-1.6629,-1.6615,-1.6598,-1.6614,-1.6621,-1.6627,-1.6627,-1.6617,-1.6623,-1.6558,-1.6558,-1.6558,0,0,-1.7175,-1.7124,-1.7111,-1.7046,-1.7007,-1.698,-1.693,-1.6903,-1.6882,-1.6814,-1.6783,-1.6746,-1.6691,-1.6669,-1.6657,-1.664,-1.6641,-1.663,-1.6635,-1.6632,-1.6619,-1.6626,-1.6631,-1.656,-1.656,-1.6559,0,0,-1.7216,-1.7175,-1.7161,-1.7123,-1.7065,-1.7022,-1.7019,-1.695,-1.6923,-1.6892,-1.684,-1.6814,-1.6755,-1.6718,-1.6691,-1.6719,-1.6681,-1.6709,-1.6745,-1.6735,-1.674,-1.6744,-1.6754,-1.6758,-1.671,-1.671,-1.671,0,-1.726,-1.7217,-1.7158,-1.7134,-1.7107,-1.7045,-1.703,-1.6996,-1.693,-1.6913,-1.6894,-1.6819,-1.6777,-1.6746,-1.6753,-1.6734,-1.6728,-1.6716,-1.6745,-1.6748,-1.6751,-1.6759,-1.6763,-1.6714,-1.6714,-1.6713,-1.6713,0,-1.7274,-1.7245,-1.7241,-1.7178,-1.7151,-1.7132,-1.707,-1.705,-1.7013,-1.6972,-1.6942,-1.689,-1.6842,-1.6832,-1.6796,-1.6796,-1.6786,-1.6757,-1.6724,-1.6762,-1.6768,-1.6771,-1.672,-1.6718,-1.6717,-1.6716,0,0,-1.7359,-1.7265,-1.7265,-1.7236,-1.7168,-1.7144,-1.7123,-1.7076,-1.7059,-1.7016,-1.6996,-1.6948,-1.6921,-1.6891,-1.685,-1.6842,-1.6867,-1.6814,-1.6811,-1.6825,-1.6863,-1.6885,-1.6889,-1.6842,-1.6842,-1.6843,-1.6867,0,-1.7389,-1.7346,-1.7293,-1.7268,-1.724,-1.7182,-1.7163,-1.7119,-1.708,-1.7051,-1.7008,-1.6975,-1.6942,-1.6923,-1.6913,-1.6867,-1.6874,-1.6864,-1.6822,-1.6821,-1.6836,-1.6893,-1.6915,-1.6941,-1.687,-1.687,-1.687,0,-1.7417,-1.7377,-1.735,-1.7284,-1.7271,-1.7255,-1.7208,-1.7181,-1.7131,-1.7103,-1.707,-1.7027,-1.7001,-1.6973,-1.6936,-1.6931,-1.6911,-1.6885,-1.6885,-1.6878,-1.6847,-1.6886,-1.6948,-1.6952,-1.6874,-1.6874,-1.6873,0,-1.7481,-1.742,-1.7396,-1.7373,-1.7297,-1.7287,-1.7255,-1.7203,-1.7179,-1.7138,-1.7121,-1.7079,-1.7055,-1.7023,-1.6969,-1.6954,-1.6938,-1.6905,-1.6914,-1.6915,-1.6912,-1.6913,-1.697,-1.6901,-1.6901,-1.6901,-1.6901,0,-1.7519,-1.7504,-1.7424,-1.7409,-1.7391,-1.733,-1.7314,-1.7277,-1.7232,-1.7208,-1.7155,-1.7135,-1.7066,-1.7037,-1.6995,-1.6971,-1.6961,-1.6937,-1.6926,-1.6941,-1.6944,-1.6926,-1.6923,-1.6902,-1.6902,-1.6902,-1.6902,0,-1.7587,-1.7532,-1.7502,-1.7432,-1.7414,-1.7404,-1.7345,-1.7328,-1.7287,-1.7258,-1.7248,-1.7183,-1.7146,-1.709,-1.7037,-1.7008,-1.6991,-1.6973,-1.7008,-1.7001,-1.7012,-1.7012,-1.7059,-1.7062,-1.6993,-1.6994,-1.6995,0,-1.7614,-1.7601,-1.753,-1.7511,-1.7481,-1.745,-1.7425,-1.7366,-1.7342,-1.7284,-1.7274,-1.7234,-1.7198,-1.7142,-1.709,-1.7049,-1.7029,-1.7049,-1.7023,-1.7039,-1.7028,-1.703,-1.7028,-1.7055,-1.7056,-1.7057,-1.7057,0,-1.7667,-1.7641,-1.7607,-1.7564,-1.7535,-1.7498,-1.7459,-1.7446,-1.7378,-1.7354,-1.7316,-1.7288,-1.7234,-1.7194,-1.7146,-1.7113,-1.7074,-1.7066,-1.7066,-1.7081,-1.7101,-1.7089,-1.7023,-1.7065,-1.7064,-1.7064,-1.7063,-1.7063,-1.7715,-1.7701,-1.7649,-1.7613,-1.7577,-1.7541,-1.7522,-1.7479,-1.7446,-1.7397,-1.7364,-1.7329,-1.7279,-1.721,-1.7179,-1.715,-1.7133,-1.7133,-1.7133,-1.7133,-1.7139,-1.7107,-1.7141,-1.7141,-1.7141,-1.714,-1.714,0,-1.7765,-1.7729,-1.7696,-1.7643,-1.7614,-1.7581,-1.7535,-1.7514,-1.7483,-1.744,-1.7406,-1.7363,-1.7324,-1.727,-1.7227,-1.7214,-1.7195,-1.7205,-1.7205,-1.7197,-1.7156,-1.7161,-1.7221,-1.7221,-1.7221,-1.7221,-1.7221,-1.7221,-1.7788,-1.7762,-1.773,-1.7686,-1.765,-1.7615,-1.7592,-1.7558,-1.7524,-1.7478,-1.7446,-1.741,-1.7363,-1.7316,-1.728,-1.7264,-1.7251,-1.7266,-1.7245,-1.7208,-1.72,-1.7193,-1.7197,-1.7264,-1.7264,-1.7289,-1.7289,-1.7289]},{"header":{"parameterUnit":"m.s-1","parameterCategory":1,"la1":30.2991,"la2":30.254,"lo1":-89.0895,"lo2":-89.0444,"dy":0.0017,"dx":0.0017,"nx":28,"ny":28,"refTime":"2023-08-19T03:00:00:Z","depth":0,"parameterNumber":3,"parameterNumberName":"V-component_of_WINDS"},"data":[0,0,0,0,0,0,0,0,0,0,0,0,0,0,0,0,0,0,0,0,0,0,0,0,0,0,0,0,0,0,0,0,0,0,0,0,0,0,0,0,0,0,0,0,0,0,0,0,0,0,0,0,0,0,0,0,0,0,3.5801,3.5801,0,3.5734,3.5734,3.5733,3.5671,3.567,3.5669,3.5669,3.5597,3.5596,3.5594,0,0,0,0,0,0,0,0,0,0,0,0,0,3.5873,3.5872,3.5801,3.5801,3.58,3.5734,3.5734,3.5733,3.5671,3.567,3.5669,3.5668,3.5597,3.5596,3.5594,0,0,0,0,0,0,0,0,0,0,0,0,0,3.5827,3.5871,3.5802,3.5761,3.5757,3.5735,3.5733,3.5732,3.5671,3.567,3.5669,3.5668,3.5598,3.5596,3.5594,3.5605,0,0,3.5588,3.5588,0,0,0,0,0,0,0,0,3.583,3.5825,3.5768,3.5764,3.5759,3.571,3.5732,3.569,3.5671,3.5704,3.5669,3.5667,3.5635,3.563,3.562,3.5602,3.5599,3.5588,3.5587,3.5586,3.5586,0,0,0,0,0,0,0,3.5833,3.5827,3.5775,3.5767,3.5762,3.5745,3.5738,3.5724,3.5676,3.5701,3.5696,3.5689,3.5632,3.5622,3.5618,3.5598,3.5588,3.5587,3.5586,3.5585,3.5585,3.5586,0,0,0,0,0,0,3.5843,3.583,3.5777,3.5773,3.5792,3.5745,3.5736,3.5727,3.5676,3.5668,3.569,3.5686,3.5625,3.562,3.5615,3.5624,3.5586,3.5585,3.5584,3.5584,3.5585,3.5586,0,0,0,0,0,0,3.5845,3.5839,3.578,3.58,3.5791,3.5745,3.5735,3.5726,3.5715,3.5668,3.5659,3.5688,3.5624,3.5618,3.5608,3.5621,3.5584,3.5582,3.5583,3.5584,3.5586,3.5644,0,0,0,0,0,0,3.5847,3.584,3.5844,3.5801,3.5791,3.5775,3.5735,3.5725,3.5713,3.5707,3.5664,3.5656,3.5623,3.5611,3.5607,3.5618,3.5581,3.5581,3.5583,3.5585,3.5641,3.5648,3.5653,0,0,0,0,0,3.585,3.5863,3.5845,3.5839,3.5796,3.5776,3.577,3.5733,3.5714,3.5718,3.5688,3.5657,3.5621,3.5611,3.5605,3.5616,3.558,3.5583,3.5585,3.5638,3.5646,3.5653,0,0,0,0,0,0,3.5908,3.5857,3.5836,3.5836,3.5811,3.5766,3.5769,3.5743,3.5722,3.5718,3.5671,3.5662,3.5658,3.5636,3.5626,3.5624,3.5596,3.5598,3.5639,3.5646,3.5652,3.5657,3.5579,0,0,0,0,0,3.5922,3.5911,3.5866,3.587,3.5859,3.5817,3.5806,3.578,3.5752,3.5741,3.571,3.5683,3.5665,3.5654,3.5635,3.5637,3.5627,3.5642,3.5648,3.5654,3.5655,3.5654,3.566,3.5594,3.5594,3.5594,0,0,3.5948,3.5918,3.5915,3.5881,3.5859,3.5848,3.5808,3.5798,3.5789,3.5739,3.5728,3.5705,3.5671,3.5668,3.5665,3.565,3.5671,3.5657,3.5661,3.566,3.5657,3.5663,3.5669,3.5596,3.5596,3.5595,0,0,3.5991,3.5968,3.5969,3.5947,3.5914,3.5886,3.5886,3.5845,3.5828,3.5817,3.5778,3.5766,3.5737,3.5715,3.57,3.5734,3.5705,3.5729,3.5761,3.5761,3.5766,3.577,3.5782,3.5787,3.5731,3.5731,3.5731,0,3.6028,3.6012,3.5972,3.5965,3.5951,3.5906,3.5905,3.5886,3.5848,3.5839,3.5823,3.5785,3.5759,3.5749,3.5758,3.5747,3.5745,3.5734,3.5769,3.5773,3.5776,3.5787,3.5791,3.5734,3.5734,3.5733,3.5733,0,3.6058,3.6047,3.6052,3.6017,3.6004,3.6,3.5959,3.595,3.5924,3.5897,3.5886,3.5854,3.5827,3.5823,3.5798,3.581,3.5801,3.5778,3.5749,3.5786,3.5795,3.5799,3.5738,3.5737,3.5736,3.5736,0,0,3.6137,3.6081,3.6083,3.6067,3.6027,3.6017,3.6011,3.5986,3.5978,3.5953,3.5946,3.5922,3.59,3.5883,3.5854,3.5854,3.5883,3.583,3.5828,3.5841,3.5893,3.5911,3.5917,3.5863,3.5864,3.5864,3.5896,0,3.6173,3.6161,3.6125,3.6123,3.6112,3.6068,3.6062,3.6036,3.6011,3.5997,3.5968,3.5952,3.5924,3.5913,3.5911,3.588,3.5892,3.5877,3.5855,3.5855,3.5865,3.5921,3.5941,3.5972,3.5899,3.59,3.59,0,3.6214,3.6193,3.619,3.615,3.6144,3.614,3.6114,3.6101,3.6071,3.6052,3.6033,3.6001,3.5991,3.5965,3.5949,3.594,3.5928,3.5912,3.5912,3.5908,3.588,3.5919,3.5981,3.5986,3.5905,3.5905,3.5905,0,3.6272,3.6242,3.6237,3.6224,3.6177,3.6175,3.6156,3.6124,3.6111,3.6088,3.6079,3.6054,3.6041,3.6022,3.5984,3.5969,3.5973,3.5943,3.5956,3.5957,3.5959,3.5959,3.602,3.5952,3.5952,3.5952,3.5952,0,3.6316,3.6316,3.6262,3.6259,3.6257,3.6215,3.6214,3.619,3.6162,3.6152,3.6112,3.6103,3.6054,3.6039,3.601,3.6001,3.5995,3.5979,3.5971,3.5983,3.5985,3.5975,3.5971,3.5953,3.5953,3.5953,3.5953,0,3.638,3.6344,3.6335,3.6292,3.6281,3.6281,3.6243,3.6238,3.621,3.6198,3.6192,3.6148,3.6129,3.6089,3.6059,3.6038,3.6037,3.6023,3.6048,3.6043,3.6058,3.6057,3.6113,3.6118,3.6048,3.6049,3.605,0,3.6411,3.641,3.6367,3.6358,3.634,3.6326,3.6313,3.6271,3.6259,3.6223,3.6222,3.6199,3.6179,3.615,3.6114,3.609,3.6075,3.6097,3.6071,3.6083,3.6075,3.6076,3.6075,3.6103,3.6104,3.6104,3.6105,0,3.6469,3.6451,3.6435,3.6412,3.6397,3.6377,3.6354,3.6348,3.6301,3.6289,3.6269,3.6254,3.6223,3.62,3.6171,3.6149,3.6119,3.6113,3.6115,3.6127,3.6141,3.6133,3.6063,3.6112,3.6111,3.6111,3.6111,3.611,3.6517,3.6514,3.6483,3.6466,3.6444,3.6424,3.6416,3.6388,3.6371,3.6343,3.6319,3.6301,3.6269,3.6227,3.6207,3.6191,3.6177,3.6179,3.618,3.6181,3.6186,3.6144,3.6186,3.6185,3.6185,3.6185,3.6185,0,3.6574,3.6552,3.6536,3.6505,3.6491,3.6465,3.6438,3.6428,3.6413,3.6386,3.6367,3.6344,3.6322,3.6285,3.626,3.6254,3.624,3.6249,3.6249,3.6244,3.62,3.6201,3.6261,3.6261,3.6261,3.6261,3.6261,3.6261,3.6601,3.6595,3.6573,3.6555,3.6532,3.6515,3.6502,3.6482,3.6461,3.6437,3.6419,3.6395,3.6364,3.6336,3.6314,3.6303,3.6296,3.631,3.6295,3.6254,3.6247,3.624,3.6241,3.6308,3.6308,3.6339,3.634,3.634]}]]